IK3ZGB Weather Reports


Display with metric or nautical units.
time (UTC)temp
F
wind
direction
speed
MPH
gust
MPH
rain 1hr
in
rain 24hr
in
rain mn
in
humidity
%
barometer
mb
20260831195041 81 0.0 0.0 0.00 0.00 0.00 70 1010.2
20260831194041 81 0.0 0.0 0.00 0.00 0.00 71 1009.9
20260831193042 81 0.0 0.0 0.00 0.00 0.00 70 1009.8
20260831192042 82 0.0 0.0 0.00 0.00 0.00 70 1009.7
20260831191042 82 0.0 0.0 0.00 0.00 0.00 68 1009.3
20260831190043 83 0.0 0.0 0.00 0.00 0.00 64 1009.1
20260831185042 83 0.0 0.0 0.00 0.00 0.00 62 1009.3
20260831184042 84 0.0 0.0 0.00 0.00 0.00 61 1008.8
20260831183042 85 0.0 0.0 0.00 0.00 0.00 60 1008.5
20260831182041 86 0.0 0.0 0.00 0.00 0.00 59 1008.6
20260831181041 86 0.0 0.0 0.00 0.00 0.00 59 1008.5
20260831180041 86 0.0 0.0 0.00 0.00 0.00 58 1008.2
20260831175042 87 0.0 0.0 0.00 0.00 0.00 58 1008.2
20260831174041 87 0.0 0.0 0.00 0.00 0.00 58 1008.1
20260831173042 87 0.0 0.0 0.00 0.00 0.00 58 1008.3
20260831172041 88 0.0 0.0 0.00 0.00 0.00 57 1008.5
20260831171040 88 0.0 0.0 0.00 0.00 0.00 58 1008.5
20260831170041 88 0.0 0.0 0.00 0.00 0.00 57 1008.3
20260831165041 88 0.0 0.0 0.00 0.00 0.00 56 1008.3
20260831164040 88 0.0 0.0 0.00 0.00 0.00 57 1008.6
20260831163041 89 0.0 0.0 0.00 0.00 0.00 57 1008.5
20260831162041 89 0.0 0.0 0.00 0.00 0.00 56 1008.6
20260831161042 89 0.0 0.0 0.00 0.00 0.00 56 1009.1
20260831160042 89 0.0 0.0 0.00 0.00 0.00 56 1008.8
20260831155041 90 0.0 0.0 0.00 0.00 0.00 56 1008.8
20260831154042 90 0.0 0.0 0.00 0.00 0.00 56 1009.0
20260831153042 90 0.0 0.0 0.00 0.00 0.00 55 1009.0
20260831152041 90 0.0 0.0 0.00 0.00 0.00 56 1008.8
20260831151040 90 0.0 0.0 0.00 0.00 0.00 56 1008.6
20260831150041 90 0.0 0.0 0.00 0.00 0.00 55 1008.7
20260831145043 90 0.0 0.0 0.00 0.00 0.00 56 1009.0
20260831144040 90 0.0 0.0 0.00 0.00 0.00 56 1009.0
20260831143042 90 0.0 0.0 0.00 0.00 0.00 56 1009.2
20260831142041 90 0.0 0.0 0.00 0.00 0.00 56 1009.0
20260831141041 90 0.0 0.0 0.00 0.00 0.00 56 1008.8
20260831140042 90 0.0 0.0 0.00 0.00 0.00 56 1009.1
20260831135041 90 0.0 0.0 0.00 0.00 0.00 57 1009.2
20260831134042 89 0.0 0.0 0.00 0.00 0.00 56 1009.3
20260831133042 90 0.0 0.0 0.00 0.00 0.00 57 1009.6
20260831132041 90 0.0 0.0 0.00 0.00 0.00 57 1009.6
20260831131042 90 0.0 0.0 0.00 0.00 0.00 56 1009.8
20260831130041 91 0.0 0.0 0.00 0.00 0.00 57 1009.9
20260831125041 91 0.0 0.0 0.00 0.00 0.00 57 1009.9
20260831124041 91 0.0 0.0 0.00 0.00 0.00 57 1009.7
20260831123043 90 0.0 0.0 0.00 0.00 0.00 58 1009.7
20260831122042 90 0.0 0.0 0.00 0.00 0.00 58 1009.8
20260831121041 90 0.0 0.0 0.00 0.00 0.00 58 1009.8
20260831120042 90 0.0 0.0 0.00 0.00 0.00 59 1010.2
20260831115042 89 0.0 0.0 0.00 0.00 0.00 59 1010.4
20260831114040 90 0.0 0.0 0.00 0.00 0.00 57 1010.3
20260831113042 90 0.0 0.0 0.00 0.00 0.00 59 1010.6
20260831112041 90 0.0 0.0 0.00 0.00 0.00 57 1010.8
20260831111040 91 0.0 0.0 0.00 0.00 0.00 58 1010.6
20260831110042 90 0.0 0.0 0.00 0.00 0.00 57 1010.8
20260831105042 91 0.0 0.0 0.00 0.00 0.00 58 1010.8
20260831104040 90 0.0 0.0 0.00 0.00 0.00 57 1011.0
20260831103042 91 0.0 0.0 0.00 0.00 0.00 57 1010.8
20260831102041 92 0.0 0.0 0.00 0.00 0.00 58 1010.9
20260831101041 91 0.0 0.0 0.00 0.00 0.00 57 1011.1
20260831100042 91 0.0 0.0 0.00 0.00 0.00 57 1011.2
20260831095042 91 0.0 0.0 0.00 0.00 0.00 56 1011.1
20260831094041 91 0.0 0.0 0.00 0.00 0.00 57 1011.3
20260831093041 90 0.0 0.0 0.00 0.00 0.00 56 1011.5
20260831092042 91 0.0 0.0 0.00 0.00 0.00 58 1011.5
20260831091042 91 0.0 0.0 0.00 0.00 0.00 58 1011.5
20260831090042 90 0.0 0.0 0.00 0.00 0.00 58 1011.8
20260831085041 90 0.0 0.0 0.00 0.00 0.00 57 1011.4
20260831084041 90 0.0 0.0 0.00 0.00 0.00 58 1011.7
20260831083042 91 0.0 0.0 0.00 0.00 0.00 58 1011.6
20260831082042 90 0.0 0.0 0.00 0.00 0.00 59 1011.9
20260831081041 89 0.0 0.0 0.00 0.00 0.00 57 1011.7
20260831080041 89 0.0 0.0 0.00 0.00 0.00 57 1012.0
20260831075042 87 0.0 0.0 0.00 0.00 0.00 57 1011.8
20260831074041 88 0.0 0.0 0.00 0.00 0.00 59 1011.6
20260831073042 88 0.0 0.0 0.00 0.00 0.00 60 1011.4
20260831072042 87 0.0 0.0 0.00 0.00 0.00 60 1011.6
20260831071042 86 0.0 0.0 0.00 0.00 0.00 61 1011.7
20260831070041 86 0.0 0.0 0.00 0.00 0.00 62 1011.6
20260831065043 85 0.0 0.0 0.00 0.00 0.00 61 1011.8
20260831064041 84 0.0 0.0 0.00 0.00 0.00 61 1012.0
20260831063042 83 0.0 0.0 0.00 0.00 0.00 64 1012.4
20260831062042 82 0.0 0.0 0.00 0.00 0.00 64 1012.3
20260831061042 81 0.0 0.0 0.00 0.00 0.00 66 1012.2
20260831060042 81 0.0 0.0 0.00 0.00 0.00 66 1012.3
20260831055041 86 0.0 0.0 0.00 0.00 0.00 68 1012.4
20260831054040 83 0.0 0.0 0.00 0.00 0.00 72 1012.6
20260831053041 75 0.0 0.0 0.00 0.00 0.00 74 1012.4
20260831052041 73 0.0 0.0 0.00 0.00 0.00 74 1012.2
20260831051041 72 0.0 0.0 0.00 0.00 0.00 74 1012.3
20260831050041 72 0.0 0.0 0.00 0.00 0.00 75 1012.2
20260831045042 72 0.0 0.0 0.00 0.00 0.00 75 1012.2
20260831044041 72 0.0 0.0 0.00 0.00 0.00 75 1012.1
20260831043041 72 0.0 0.0 0.00 0.00 0.00 74 1012.2
20260831042043 72 0.0 0.0 0.00 0.00 0.00 74 1011.6
20260831041042 72 0.0 0.0 0.00 0.00 0.00 74 1012.0
20260831040041 72 0.0 0.0 0.00 0.00 0.00 74 1012.1
20260831035041 72 0.0 0.0 0.00 0.00 0.00 74 1011.9
20260831034042 72 0.0 0.0 0.00 0.00 0.00 75 1012.2
20260831033042 72 0.0 0.0 0.00 0.00 0.00 75 1012.2
20260831032043 72 0.0 0.0 0.00 0.00 0.00 75 1012.5
20260831031041 72 0.0 0.0 0.00 0.00 0.00 75 1012.5
20260831030041 72 0.0 0.0 0.00 0.00 0.00 74 1012.5
20260831025042 72 0.0 0.0 0.00 0.00 0.00 74 1012.5
20260831024041 72 0.0 0.0 0.00 0.00 0.00 74 1012.3
20260831023042 72 0.0 0.0 0.00 0.00 0.00 74 1012.0
20260831022041 72 0.0 0.0 0.00 0.00 0.00 73 1012.0
20260831021041 73 0.0 0.0 0.00 0.00 0.00 73 1012.3
20260831020041 73 0.0 0.0 0.00 0.00 0.00 73 1012.2
20260831015042 73 0.0 0.0 0.00 0.00 0.00 73 1012.3
20260831014042 73 0.0 0.0 0.00 0.00 0.00 74 1012.0
20260831013041 73 0.0 0.0 0.00 0.00 0.00 73 1012.2
20260831012042 73 0.0 0.0 0.00 0.00 0.00 73 1012.2
20260831011040 74 0.0 0.0 0.00 0.00 0.00 72 1012.1
20260831010041 74 0.0 0.0 0.00 0.00 0.00 71 1012.2
20260831005041 75 0.0 0.0 0.00 0.00 0.00 71 1012.1
20260831004041 76 0.0 0.0 0.00 0.00 0.00 71 1012.2
20260831003041 75 0.0 0.0 0.00 0.00 0.00 71 1012.0
20260831002042 76 0.0 0.0 0.00 0.00 0.00 69 1012.1
20260831001042 76 0.0 0.0 0.00 0.00 0.00 68 1012.1
20260831000040 76 0.0 0.0 0.00 0.00 0.00 68 1012.2
20260830235042 76 0.0 0.0 0.00 0.00 0.00 68 1012.0
20260830234041 77 0.0 0.0 0.00 0.00 0.00 67 1012.1
20260830233041 77 0.0 0.0 0.00 0.00 0.00 67 1012.1
20260830232042 77 0.0 0.0 0.00 0.00 0.00 66 1012.1
20260830231041 77 0.0 0.0 0.00 0.00 0.00 67 1012.1
20260830230042 77 0.0 0.0 0.00 0.00 0.00 67 1012.1
20260830225041 77 0.0 0.0 0.00 0.00 0.00 68 1011.9
20260830224040 77 0.0 0.0 0.00 0.00 0.00 67 1012.3
20260830223042 77 0.0 0.0 0.00 0.00 0.00 67 1011.9
20260830222041 78 0.0 0.0 0.00 0.00 0.00 67 1012.3
20260830221041 78 0.0 0.0 0.00 0.00 0.00 67 1012.3
20260830220041 78 0.0 0.0 0.00 0.00 0.00 67 1012.0
20260830215041 78 0.0 0.0 0.00 0.00 0.00 67 1012.2
20260830214040 78 0.0 0.0 0.00 0.00 0.00 67 1011.9
20260830213041 78 0.0 0.0 0.00 0.00 0.00 67 1012.0
20260830212041 78 0.0 0.0 0.00 0.00 0.00 66 1011.8
20260830211040 78 0.0 0.0 0.00 0.00 0.00 66 1011.9
20260830210041 79 0.0 0.0 0.00 0.00 0.00 66 1011.9
20260830205041 78 0.0 0.0 0.00 0.00 0.00 66 1011.7
20260830204042 79 0.0 0.0 0.00 0.00 0.00 66 1011.5
20260830203042 79 0.0 0.0 0.00 0.00 0.00 65 1011.5
20260830202042 80 0.0 0.0 0.00 0.00 0.00 65 1011.4
20260830201041 80 0.0 0.0 0.00 0.00 0.00 65 1011.8
20260830200042 80 0.0 0.0 0.00 0.00 0.00 65 1011.3